| time (UTC) | temp F | wind direction | speed knots | gust knots | rain 1hr in | rain 24hr in | rain mn in | humidity % | barometer mb |
| 20260503224517 | 61 | 231 | 4.3 | 9.6 | 0.00 | 0.00 | 0.00 | 41 | 1010.6 |
| 20260503224017 | 61 | 231 | 5.2 | 10.4 | 0.00 | 0.00 | 0.00 | 41 | 1010.6 |
| 20260503223517 | 60 | 219 | 4.3 | 9.6 | 0.00 | 0.00 | 0.00 | 42 | 1010.7 |
| 20260503223017 | 60 | 222 | 4.3 | 9.6 | 0.00 | 0.00 | 0.00 | 42 | 1010.8 |
| 20260503222517 | 60 | 220 | 5.2 | 13.0 | 0.00 | 0.00 | 0.00 | 42 | 1010.9 |
| 20260503222017 | 60 | 221 | 5.2 | 10.4 | 0.00 | 0.00 | 0.00 | 42 | 1010.9 |
| 20260503221517 | 60 | 227 | 4.3 | 7.8 | 0.00 | 0.00 | 0.00 | 43 | 1010.8 |
| 20260503221020 | 60 | 224 | 4.3 | 10.4 | 0.00 | 0.00 | 0.00 | 42 | 1010.9 |
| 20260503220517 | 60 | 232 | 6.1 | 9.6 | 0.00 | 0.00 | 0.00 | 42 | 1010.9 |
| 20260503220017 | 60 | 234 | 6.1 | 10.4 | 0.00 | 0.00 | 0.00 | 43 | 1010.9 |
| 20260503215517 | 60 | 219 | 5.2 | 10.4 | 0.00 | 0.00 | 0.00 | 43 | 1010.9 |
| 20260503215019 | 60 | 217 | 7.0 | 14.8 | 0.00 | 0.00 | 0.00 | 43 | 1010.9 |
| 20260503214518 | 60 | 229 | 6.1 | 12.2 | 0.00 | 0.00 | 0.00 | 43 | 1010.9 |
| 20260503214018 | 60 | 226 | 5.2 | 11.3 | 0.00 | 0.00 | 0.00 | 43 | 1010.9 |
| 20260503213518 | 60 | 231 | 5.2 | 13.9 | 0.00 | 0.00 | 0.00 | 43 | 1011.0 |
| 20260503213018 | 60 | 240 | 5.2 | 11.3 | 0.00 | 0.00 | 0.00 | 43 | 1010.9 |
| 20260503212518 | 60 | 227 | 4.3 | 13.0 | 0.00 | 0.00 | 0.00 | 43 | 1010.9 |
| 20260503212018 | 60 | 218 | 6.1 | 13.9 | 0.00 | 0.00 | 0.00 | 43 | 1010.9 |
| 20260503211515 | 60 | 214 | 6.1 | 14.8 | 0.00 | 0.00 | 0.00 | 43 | 1011.0 |
| 20260503211019 | 60 | 222 | 5.2 | 10.4 | 0.00 | 0.00 | 0.00 | 43 | 1010.9 |
| 20260503210518 | 60 | 238 | 4.3 | 7.8 | 0.00 | 0.00 | 0.00 | 43 | 1010.9 |
| 20260503210019 | 60 | 238 | 4.3 | 9.6 | 0.00 | 0.00 | 0.00 | 43 | 1011.0 |
| 20260503205519 | 60 | 225 | 6.1 | 12.2 | 0.00 | 0.00 | 0.00 | 42 | 1010.9 |
| 20260503205017 | 60 | 229 | 5.2 | 12.2 | 0.00 | 0.00 | 0.00 | 43 | 1010.9 |
| 20260503204519 | 60 | 245 | 5.2 | 9.6 | 0.00 | 0.00 | 0.00 | 42 | 1010.9 |
| 20260503204019 | 60 | 226 | 7.0 | 13.0 | 0.00 | 0.00 | 0.00 | 42 | 1011.1 |
| 20260503203517 | 60 | 215 | 6.1 | 11.3 | 0.00 | 0.00 | 0.00 | 42 | 1011.0 |
| 20260503203016 | 61 | 211 | 6.1 | 10.4 | 0.00 | 0.00 | 0.00 | 42 | 1011.0 |
| 20260503202516 | 61 | 220 | 7.0 | 15.6 | 0.00 | 0.00 | 0.00 | 41 | 1011.1 |
| 20260503202016 | 61 | 214 | 6.1 | 13.9 | 0.00 | 0.00 | 0.00 | 41 | 1011.1 |
| 20260503201516 | 60 | 233 | 5.2 | 10.4 | 0.00 | 0.00 | 0.00 | 42 | 1011.2 |
| 20260503201020 | 60 | 222 | 7.0 | 11.3 | 0.00 | 0.00 | 0.00 | 42 | 1011.2 |
| 20260503200520 | 60 | 225 | 6.1 | 16.5 | 0.00 | 0.00 | 0.00 | 41 | 1011.3 |
| 20260503200018 | 60 | 218 | 6.1 | 13.0 | 0.00 | 0.00 | 0.00 | 42 | 1011.4 |
| 20260503195517 | 60 | 219 | 5.2 | 10.4 | 0.00 | 0.00 | 0.00 | 42 | 1011.5 |
| 20260503195018 | 60 | 217 | 7.8 | 13.9 | 0.00 | 0.00 | 0.00 | 42 | 1011.6 |
| 20260503194517 | 60 | 245 | 4.3 | 8.7 | 0.00 | 0.00 | 0.00 | 42 | 1011.7 |
| 20260503194017 | 59 | 232 | 5.2 | 10.4 | 0.00 | 0.00 | 0.00 | 42 | 1011.8 |
| 20260503193517 | 59 | 237 | 5.2 | 10.4 | 0.00 | 0.00 | 0.00 | 42 | 1011.9 |
| 20260503193021 | 59 | 234 | 5.2 | 8.7 | 0.00 | 0.00 | 0.00 | 42 | 1011.9 |
| 20260503192518 | 60 | 225 | 6.1 | 14.8 | 0.00 | 0.00 | 0.00 | 42 | 1012.0 |
| 20260503192018 | 60 | 214 | 6.1 | 13.0 | 0.00 | 0.00 | 0.00 | 43 | 1012.0 |
| 20260503191517 | 60 | 238 | 4.3 | 10.4 | 0.00 | 0.00 | 0.00 | 42 | 1012.1 |
| 20260503191017 | 60 | 220 | 5.2 | 16.5 | 0.00 | 0.00 | 0.00 | 42 | 1012.1 |
| 20260503190518 | 60 | 246 | 7.0 | 14.8 | 0.00 | 0.00 | 0.00 | 42 | 1012.2 |
| 20260503190017 | 60 | 227 | 5.2 | 11.3 | 0.00 | 0.00 | 0.00 | 43 | 1012.3 |
| 20260503185518 | 60 | 232 | 7.8 | 13.0 | 0.00 | 0.00 | 0.00 | 42 | 1012.3 |
| 20260503185018 | 60 | 230 | 7.0 | 13.0 | 0.00 | 0.00 | 0.00 | 43 | 1012.3 |
| 20260503184518 | 60 | 218 | 5.2 | 10.4 | 0.00 | 0.00 | 0.00 | 44 | 1012.4 |
| 20260503184022 | 60 | 241 | 4.3 | 8.7 | 0.00 | 0.00 | 0.00 | 43 | 1012.4 |
| 20260503183518 | 60 | 247 | 5.2 | 10.4 | 0.00 | 0.00 | 0.00 | 42 | 1012.6 |
| 20260503183018 | 60 | 229 | 5.2 | 10.4 | 0.00 | 0.00 | 0.00 | 44 | 1012.6 |
| 20260503182518 | 59 | 231 | 4.3 | 9.6 | 0.00 | 0.00 | 0.00 | 45 | 1012.7 |
| 20260503182018 | 59 | 225 | 6.1 | 9.6 | 0.00 | 0.00 | 0.00 | 44 | 1012.7 |
| 20260503181515 | 59 | 227 | 7.0 | 13.0 | 0.00 | 0.00 | 0.00 | 44 | 1012.8 |
| 20260503181019 | 59 | 224 | 7.0 | 13.9 | 0.00 | 0.00 | 0.00 | 44 | 1012.8 |
| 20260503180520 | 60 | 213 | 6.1 | 12.2 | 0.00 | 0.00 | 0.00 | 44 | 1012.9 |
| 20260503180024 | 60 | 242 | 5.2 | 13.0 | 0.00 | 0.00 | 0.00 | 43 | 1012.9 |
| 20260503175519 | 60 | 263 | 6.1 | 13.0 | 0.00 | 0.00 | 0.00 | 44 | 1013.0 |
| 20260503175019 | 60 | 241 | 6.1 | 11.3 | 0.00 | 0.00 | 0.00 | 43 | 1013.1 |
| 20260503174519 | 59 | 257 | 6.1 | 11.3 | 0.00 | 0.00 | 0.00 | 44 | 1013.2 |
| 20260503174017 | 59 | 223 | 7.0 | 12.2 | 0.00 | 0.00 | 0.00 | 45 | 1013.2 |
| 20260503173516 | 59 | 245 | 6.1 | 13.9 | 0.00 | 0.00 | 0.00 | 45 | 1013.2 |
| 20260503173016 | 59 | 240 | 5.2 | 13.0 | 0.00 | 0.00 | 0.00 | 46 | 1013.3 |
| 20260503172518 | 59 | 240 | 6.1 | 12.2 | 0.00 | 0.00 | 0.00 | 46 | 1013.4 |
| 20260503172017 | 59 | 226 | 7.0 | 13.9 | 0.00 | 0.00 | 0.00 | 46 | 1013.4 |
| 20260503171517 | 59 | 258 | 4.3 | 7.8 | 0.00 | 0.00 | 0.00 | 47 | 1013.5 |
| 20260503171019 | 59 | 247 | 4.3 | 12.2 | 0.00 | 0.00 | 0.00 | 47 | 1013.6 |
| 20260503170520 | 58 | 258 | 4.3 | 9.6 | 0.00 | 0.00 | 0.00 | 47 | 1013.7 |
| 20260503150518 | 53 | 220 | 4.3 | 9.6 | 0.00 | 0.00 | 0.00 | 49 | 1014.8 |
| 20260503131021 | 45 | 207 | 2.6 | 5.2 | 0.00 | 0.00 | 0.00 | 60 | 1015.9 |
| 20260503130521 | 44 | 211 | 2.6 | 6.1 | 0.00 | 0.00 | 0.00 | 62 | 1016.0 |
| 20260503110533 | 35 | 230 | 0.9 | 0.9 | 0.00 | 0.00 | 0.00 | 85 | 1016.2 |
| 20260503081523 | 35 | 0.0 | 0.0 | 0.00 | 0.00 | 0.00 | 87 | 1016.0 | |
| 20260503081023 | 36 | 205 | 0.0 | 1.7 | 0.00 | 0.00 | 0.00 | 87 | 1016.0 |
| 20260503080523 | 36 | 202 | 0.0 | 1.7 | 0.00 | 0.00 | 0.00 | 87 | 1016.0 |
| 20260503072523 | 36 | 229 | 0.0 | 1.7 | 0.00 | 0.00 | 0.00 | 87 | 1016.0 |
| 20260503072023 | 36 | 241 | 0.0 | 0.9 | 0.00 | 0.00 | 0.00 | 87 | 1016.0 |
| 20260503071524 | 36 | 264 | 0.0 | 0.9 | 0.00 | 0.00 | 0.00 | 87 | 1016.0 |
| 20260503071024 | 36 | 188 | 0.9 | 2.6 | 0.00 | 0.00 | 0.00 | 88 | 1016.0 |
| 20260503070524 | 36 | 206 | 0.9 | 1.7 | 0.00 | 0.00 | 0.00 | 88 | 1016.0 |
| 20260503055026 | 36 | 235 | 0.0 | 0.9 | 0.00 | 0.06 | 0.00 | 87 | 1016.2 |
| 20260503054525 | 36 | 176 | 0.0 | 0.9 | 0.00 | 0.07 | 0.00 | 87 | 1016.2 |
| 20260503054025 | 36 | 225 | 0.0 | 0.9 | 0.00 | 0.07 | 0.00 | 86 | 1016.2 |
| 20260503053526 | 37 | 242 | 0.0 | 0.9 | 0.00 | 0.07 | 0.00 | 86 | 1016.2 |
| 20260503053026 | 37 | 237 | 0.0 | 0.9 | 0.00 | 0.07 | 0.00 | 86 | 1016.2 |
| 20260503052526 | 37 | 0.0 | 0.0 | 0.00 | 0.07 | 0.00 | 86 | 1016.2 | |
| 20260503052026 | 37 | 199 | 0.0 | 1.7 | 0.00 | 0.07 | 0.00 | 85 | 1016.2 |
| 20260503051526 | 37 | 0.0 | 0.0 | 0.00 | 0.07 | 0.00 | 85 | 1016.3 | |
| 20260503051026 | 37 | 0.0 | 0.0 | 0.00 | 0.07 | 0.00 | 84 | 1016.3 | |
| 20260503050526 | 37 | 179 | 0.0 | 0.9 | 0.00 | 0.07 | 0.00 | 84 | 1016.3 |
| 20260503050026 | 38 | 0.0 | 0.0 | 0.00 | 0.07 | 0.00 | 83 | 1016.3 | |
| 20260503045526 | 38 | 0.0 | 0.0 | 0.00 | 0.07 | 0.00 | 82 | 1016.4 | |
| 20260503045026 | 38 | 0.0 | 0.0 | 0.00 | 0.07 | 0.00 | 82 | 1016.4 | |
| 20260503044528 | 39 | 204 | 0.0 | 0.9 | 0.00 | 0.07 | 0.00 | 81 | 1016.3 |
| 20260503044027 | 39 | 0.0 | 0.0 | 0.00 | 0.07 | 0.00 | 81 | 1016.3 | |
| 20260503043527 | 39 | 179 | 0.0 | 1.7 | 0.00 | 0.07 | 0.00 | 80 | 1016.2 |
| 20260503043027 | 40 | 219 | 0.0 | 1.7 | 0.00 | 0.07 | 0.00 | 79 | 1016.3 |
| 20260503042527 | 40 | 206 | 0.9 | 2.6 | 0.00 | 0.07 | 0.00 | 79 | 1016.3 |
| 20260503042027 | 40 | 220 | 0.0 | 1.7 | 0.00 | 0.07 | 0.00 | 78 | 1016.3 |
| 20260503041527 | 40 | 203 | 0.9 | 1.7 | 0.00 | 0.07 | 0.00 | 78 | 1016.3 |
| 20260503041027 | 41 | 205 | 1.7 | 2.6 | 0.00 | 0.07 | 0.00 | 77 | 1016.3 |
| 20260503040528 | 41 | 209 | 0.9 | 2.6 | 0.00 | 0.08 | 0.00 | 77 | 1016.3 |
| 20260503040028 | 41 | 207 | 1.7 | 3.5 | 0.00 | 0.08 | 0.00 | 76 | 1016.3 |
| 20260503035528 | 41 | 208 | 0.9 | 2.6 | 0.00 | 0.08 | 0.00 | 76 | 1016.3 |
| 20260503035028 | 41 | 202 | 0.9 | 1.7 | 0.00 | 0.08 | 0.00 | 76 | 1016.3 |
| 20260503034528 | 42 | 207 | 0.9 | 1.7 | 0.00 | 0.08 | 0.00 | 75 | 1016.3 |
| 20260503034028 | 42 | 202 | 0.9 | 1.7 | 0.00 | 0.08 | 0.00 | 75 | 1016.3 |
| 20260503033528 | 42 | 220 | 0.9 | 2.6 | 0.00 | 0.08 | 0.00 | 75 | 1016.3 |
| 20260503033029 | 42 | 213 | 0.9 | 2.6 | 0.00 | 0.08 | 0.00 | 75 | 1016.3 |
| 20260503032528 | 42 | 226 | 0.9 | 2.6 | 0.00 | 0.09 | 0.00 | 75 | 1016.3 |
| 20260503032028 | 42 | 222 | 0.9 | 1.7 | 0.00 | 0.10 | 0.00 | 74 | 1016.3 |
| 20260503031528 | 42 | 227 | 0.9 | 1.7 | 0.00 | 0.10 | 0.00 | 74 | 1016.4 |
| 20260503031029 | 42 | 191 | 0.0 | 0.9 | 0.00 | 0.10 | 0.00 | 73 | 1016.4 |
| 20260503030528 | 42 | 216 | 0.0 | 1.7 | 0.00 | 0.10 | 0.00 | 73 | 1016.4 |
| 20260503030028 | 42 | 208 | 0.9 | 2.6 | 0.00 | 0.11 | 0.00 | 72 | 1016.5 |
| 20260503025529 | 42 | 242 | 0.9 | 2.6 | 0.00 | 0.11 | 0.00 | 72 | 1016.4 |
| 20260503025029 | 42 | 252 | 0.0 | 0.9 | 0.00 | 0.11 | 0.00 | 72 | 1016.5 |
| 20260503024529 | 42 | 0.0 | 0.0 | 0.00 | 0.12 | 0.00 | 72 | 1016.5 | |
| 20260503024030 | 42 | 251 | 0.0 | 1.7 | 0.00 | 0.12 | 0.00 | 72 | 1016.6 |
| 20260503023529 | 42 | 249 | 0.0 | 1.7 | 0.00 | 0.13 | 0.00 | 71 | 1016.6 |
| 20260503023029 | 42 | 250 | 0.0 | 1.7 | 0.00 | 0.13 | 0.00 | 71 | 1016.6 |
| 20260503022529 | 42 | 245 | 0.0 | 1.7 | 0.00 | 0.13 | 0.00 | 71 | 1016.6 |
| 20260503022029 | 42 | 0.0 | 0.0 | 0.00 | 0.14 | 0.00 | 71 | 1016.6 | |
| 20260503021529 | 42 | 0.0 | 0.0 | 0.00 | 0.15 | 0.00 | 72 | 1016.6 | |
| 20260503021029 | 42 | 4 | 0.0 | 0.9 | 0.00 | 0.17 | 0.00 | 71 | 1016.6 |
| 20260503020529 | 42 | 0.0 | 0.0 | 0.00 | 0.17 | 0.00 | 71 | 1016.6 | |
| 20260503020030 | 42 | 0.0 | 0.0 | 0.00 | 0.17 | 0.00 | 71 | 1016.6 | |
| 20260503015530 | 42 | 0.0 | 0.0 | 0.00 | 0.18 | 0.00 | 71 | 1016.5 | |
| 20260503015030 | 42 | 0.0 | 0.0 | 0.00 | 0.18 | 0.00 | 71 | 1016.5 | |
| 20260503014531 | 42 | 0.0 | 0.0 | 0.00 | 0.18 | 0.00 | 70 | 1016.5 | |
| 20260503014030 | 42 | 0.0 | 0.0 | 0.00 | 0.18 | 0.00 | 70 | 1016.5 | |
| 20260503013530 | 42 | 0.0 | 0.0 | 0.00 | 0.18 | 0.00 | 70 | 1016.4 | |
| 20260503013030 | 42 | 0.0 | 0.0 | 0.00 | 0.18 | 0.00 | 70 | 1016.4 | |
| 20260503012530 | 42 | 0.0 | 0.0 | 0.00 | 0.18 | 0.00 | 70 | 1016.4 | |
| 20260503012030 | 42 | 0.0 | 0.0 | 0.00 | 0.18 | 0.00 | 69 | 1016.4 | |
| 20260503011530 | 42 | 0.0 | 0.0 | 0.00 | 0.18 | 0.00 | 69 | 1016.4 | |
| 20260503011030 | 42 | 0.0 | 0.0 | 0.00 | 0.18 | 0.00 | 69 | 1016.4 | |
| 20260503010531 | 42 | 0.0 | 0.0 | 0.00 | 0.18 | 0.00 | 68 | 1016.4 | |
| 20260503010031 | 42 | 0.0 | 0.0 | 0.00 | 0.18 | 0.00 | 68 | 1016.4 | |
| 20260503005531 | 42 | 0.0 | 0.0 | 0.00 | 0.18 | 0.00 | 68 | 1016.3 | |
| 20260503005016 | 42 | 0.0 | 0.0 | 0.00 | 0.18 | 0.00 | 67 | 1016.3 | |
| 20260503004531 | 42 | 0.0 | 0.0 | 0.00 | 0.18 | 0.00 | 67 | 1016.3 | |
| 20260503004016 | 43 | 0.0 | 0.0 | 0.00 | 0.18 | 0.00 | 67 | 1016.3 | |
| 20260503003531 | 43 | 0.0 | 0.0 | 0.00 | 0.18 | 0.00 | 67 | 1016.3 | |
| 20260503003031 | 43 | 0.0 | 0.0 | 0.00 | 0.18 | 0.00 | 65 | 1016.3 | |
| 20260503002532 | 44 | 0.0 | 0.0 | 0.00 | 0.18 | 0.00 | 64 | 1016.2 | |
| 20260503002031 | 44 | 0.0 | 0.0 | 0.00 | 0.18 | 0.00 | 61 | 1016.2 | |
| 20260503001532 | 44 | 271 | 0.9 | 1.7 | 0.00 | 0.18 | 0.00 | 61 | 1016.2 |
| 20260503001032 | 44 | 288 | 0.0 | 0.9 | 0.00 | 0.18 | 0.00 | 61 | 1016.1 |
| 20260503000532 | 44 | 329 | 0.0 | 0.9 | 0.00 | 0.18 | 0.00 | 61 | 1016.1 |
| 20260503000018 | 44 | 311 | 0.0 | 1.7 | 0.00 | 0.18 | 0.00 | 62 | 1016.1 |
| 20260502235532 | 44 | 0.0 | 0.0 | 0.00 | 0.18 | 0.18 | 60 | 1016.1 | |
| 20260502235032 | 44 | 289 | 0.0 | 1.7 | 0.00 | 0.18 | 0.18 | 60 | 1016.1 |
| 20260502234518 | 44 | 279 | 0.9 | 2.6 | 0.00 | 0.18 | 0.18 | 60 | 1016.1 |
| 20260502234018 | 44 | 22 | 0.0 | 1.7 | 0.00 | 0.18 | 0.18 | 61 | 1016.1 |
| 20260502233517 | 44 | 352 | 0.9 | 1.7 | 0.00 | 0.18 | 0.18 | 60 | 1016.1 |
| 20260502233018 | 44 | 268 | 0.0 | 1.7 | 0.00 | 0.18 | 0.18 | 58 | 1016.1 |
| 20260502232517 | 44 | 290 | 0.9 | 2.6 | 0.00 | 0.18 | 0.18 | 59 | 1016.1 |
| 20260502232018 | 44 | 352 | 0.9 | 2.6 | 0.00 | 0.18 | 0.18 | 59 | 1016.1 |
| 20260502231518 | 44 | 339 | 0.9 | 1.7 | 0.00 | 0.18 | 0.18 | 59 | 1016.2 |
| 20260502231018 | 44 | 275 | 1.7 | 2.6 | 0.00 | 0.18 | 0.18 | 57 | 1016.1 |
| 20260502230518 | 44 | 296 | 0.0 | 1.7 | 0.00 | 0.18 | 0.18 | 58 | 1016.2 |
| 20260502230033 | 44 | 258 | 2.6 | 3.5 | 0.00 | 0.18 | 0.18 | 57 | 1016.2 |
| 20260502225518 | 45 | 245 | 1.7 | 3.5 | 0.00 | 0.18 | 0.18 | 58 | 1016.1 |
| 20260502225020 | 45 | 241 | 1.7 | 4.3 | 0.00 | 0.18 | 0.18 | 58 | 1016.1 |